sat.trackr.live / text

‹ back to catalog

SNUGLITE-III

NORAD 66661 · 2025-274M

PAYLOAD ACTIVE UNKNOWN

§ Identity

Operator
Country
SKOR
Launch date
2025-11-26
Launch site
NSC
Launch vehicle
Mass (kg)
RCS (m²)

External: N2YO · Heavens-Above · Gunter

§ Orbital elements

Epoch: 2026-05-25T01:45:11.448288Z

Period
96.39 min
Inclination
97.7486°
Eccentricity
0.0016217
Mean motion
14.93906739 rev/d
Perigee alt
574.5 km
Apogee alt
597.1 km
Semi-major
6,963.9 km
B*
1.5787e-4
RAAN
74.8606°
Arg perigee
95.9260°
Mean anomaly
264.3809°
Rev number
2,678

§ Raw data

SNUGLITE-III1 66661U 25274M   26145.07304917  .00001626  00000+0  15787-3 0  99992 66661  97.7486  74.8606 0016217  95.9260 264.3809 14.93906739 26783

JSON: /api/v1/satellites/66661 · /tle

For live sub-satellite position, see the globe view (requires WebGL).

§ Visibility from observer

Set your observer location to see the next 7 days of passes ≥ 10°. The values pass through the URL so the page stays shareable.

No JS? Fill the form by hand. The geolocation button needs JavaScript.